Location: Avenches
(46.8809°N, 7.0410°E)
Time: 23:27:53
(UTC+00:00)

Cosmos 1953 - Pass Details

Date: 30 March 2020
Orbit: 540 x 557 km, 82.5° (Epoch: 23 May)

Event Time Altitude Azimuth Distance (km) Brightness Sun altitude
Exits shadow 18:47:46 - 132° (SE) 1,854 4.5 -9.0°
Reaches altitude 10° 18:47:57 10° 130° (SE) 1,801 4.4 -9.0°
Maximum altitude 18:50:40 18° 87° (E) 1,368 3.8 -9.5°
Drops below altitude 10° 18:53:24 10° 43° (NE) 1,816 4.7 -9.9°
Sets 18:56:05 0° 25° (NNE) 2,717 5.8 -10.4°
